Location: Orange Harbor Mobile Home Park
(26.6923°N, 81.7937°W)
Time: 22:28:34
(UTC+00:00)

CZ-2C R/B - Pass Details

Date: 19 September 2020
Orbit: 391 x 588 km, 35.0° (Epoch: 24 October)

Event Time Altitude Azimuth Distance (km) Brightness Sun altitude
Rises 01:16:57 0° 293° (WNW) 2,434 6.0 -25.0°
Reaches altitude 10° 01:19:34 10° 311° (NW) 1,525 4.4 -25.5°
Enters shadow 01:21:15 18° 338° (NNW) 1,125 3.3 -25.9°
